Wind_Speed
12 13 13 13 12 12 12 12 12 12 12 12 13 13 13 13 13 13 13 13 13 12 12 12 11 12 12 13 14 14 14 14 14 14 14 14 14 14 14 14 14 13 12 11 9 8 8 7 7 7 6 6 6 7 7 7 7 7 7 7 6 6 6 6 6 6 6 7 7
12 12 12 13 13 13 12 12 13 13 14 14 14 14 14 14 14 14 14 13 12 12 11 11 11 11 12 13 13 14 14 14 14 15 15 14 14 14 14 14 14 14 13 12 10 9 8 8 7 7 7 7 7 7 7 7 8 8 8 7 7 7 7 6 7 7 7 7 7
10 11 12 12 13 13 13 13 13 14 14 15 15 15 15 14 14 14 14 13 13 12 12 12 12 12 12 13 13 14 14 15 15 15 15 14 14 14 14 14 14 14 13 13 11 10 9 8 8 7 7 8 8 8 8 8 8 8 8 8 7 7 7 7 7 8 8 8 8
10 10 11 12 12 13 13 13 14 14 15 16 16 16 16 16 15 15 14 14 13 13 13 13 13 13 13 14 14 14 15 15 15 15 15 15 14 14 14 14 14 14 14 13 12 11 10 9 8 8 8 8 9 9 9 9 9 9 9 9 8 8 7 7 8 9 8 8 8
9 10 10 11 11 12 12 13 14 14 15 15 16 17 17 17 16 16 16 15 15 15 15 15 15 15 15 15 15 16 16 16 16 16 15 15 14 14 13 13 13 13 14 13 13 12 11 10 9 9 9 9 10 10 10 10 10 10 10 10 9 8 8 8 8 9 9 9 9
9 9 10 10 11 11 12 13 13 14 14 15 15 16 16 16 17 17 17 17 17 16 16 16 16 17 17 17 17 17 17 17 17 16 16 15 14 14 13 13 13 13 14 14 13 12 11 11 11 10 10 10 11 11 11 11 11 11 11 10 10 9 9 9 9 9 9 9 9
9 9 10 10 11 12 12 13 13 14 14 14 14 15 15 16 16 17 17 17 17 17 17 17 18 18 18 18 18 18 18 18 17 17 16 16 15 14 13 12 12 13 13 14 13 12 12 11 11 11 11 11 12 12 12 12 13 13 12 11 11 11 10 10 10 10 10 9 9
10 10 10 11 11 12 12 13 13 13 14 14 14 14 14 14 15 16 16 17 17 17 18 18 18 19 19 19 19 19 19 18 18 17 17 16 15 14 13 12 12 12 13 13 13 13 12 12 12 12 13 13 13 13 13 13 13 13 13 12 12 12 12 11 11 11 10 10 10
11 11 11 11 11 12 12 12 13 13 13 14 13 13 13 13 14 14 15 16 16 17 17 18 18 19 19 19 19 19 19 18 18 17 17 16 15 14 13 12 12 12 12 13 13 13 13 12 12 13 13 14 14 14 14 14 14 13 13 13 13 13 13 13 12 12 12 11 11
11 11 11 11 11 11 12 12 13 13 14 14 13 13 13 13 13 13 14 14 15 16 17 18 18 19 19 19 19 19 19 18 18 18 17 17 16 15 15 14 13 12 12 12 13 14 14 13 13 13 14 15 15 15 15 15 14 14 14 14 13 14 14 14 14 13 12 12 12
11 11 11 11 11 11 12 13 13 13 14 14 14 14 13 13 13 13 13 14 15 15 16 17 18 18 19 19 19 19 19 18 18 17 17 17 16 16 16 15 14 13 12 12 12 13 14 14 14 14 14 15 15 15 15 15 15 15 14 14 14 14 14 14 14 14 13 12 12
12 11 11 11 11 12 13 13 14 14 14 14 14 14 14 14 13 13 13 14 14 15 15 16 17 18 19 19 19 19 18 18 18 18 17 17 17 17 17 17 16 15 14 12 12 12 14 15 15 15 14 14 15 15 15 15 15 15 15 15 15 15 15 15 14 14 13 13 13
12 12 12 12 12 13 13 14 14 15 15 15 15 15 14 14 13 13 14 14 14 14 15 15 16 17 18 18 18 18 18 18 18 18 18 17 17 17 17 18 18 17 16 14 13 12 13 14 15 15 15 15 14 14 14 14 14 14 14 15 15 14 14 15 14 14 14 13 13
13 13 13 13 13 14 14 15 15 15 16 16 16 15 15 14 14 14 14 14 14 14 14 15 15 16 16 17 17 18 18 18 18 18 18 18 17 17 18 19 19 19 17 16 14 13 13 14 14 15 16 15 15 14 13 13 14 14 14 14 14 14 13 14 14 14 14 13 13
14 14 14 14 14 15 15 16 16 16 16 16 16 15 15 14 14 14 14 14 14 14 14 14 15 15 16 16 17 17 18 18 18 18 18 18 18 17 18 19 20 20 19 18 16 15 14 14 14 15 15 16 15 14 14 14 14 14 14 14 14 13 13 13 14 14 14 14 13
16 15 15 15 16 16 16 17 17 17 17 16 15 15 14 14 14 14 14 14 14 14 14 14 14 15 15 16 16 17 18 18 19 19 19 18 18 18 18 19 20 20 20 19 18 16 15 14 14 15 15 16 16 15 15 15 15 14 14 14 13 13 12 12 13 15 15 15 14
17 17 16 17 17 17 17 17 17 17 17 16 15 15 14 14 14 14 15 15 14 14 13 13 14 14 15 16 16 17 18 19 20 20 20 19 19 18 18 19 20 21 21 20 19 17 16 15 15 15 15 16 16 16 16 15 15 15 14 14 13 13 12 12 13 15 16 15 15
18 18 18 18 18 18 18 18 18 17 17 16 15 15 15 14 14 15 15 15 15 14 14 13 14 14 15 16 16 18 19 20 21 21 21 21 20 20 20 20 21 21 21 20 19 18 17 16 15 15 15 16 16 16 16 16 16 16 16 15 14 13 12 12 13 15 16 16 15
19 19 19 19 19 19 19 18 18 18 17 17 16 16 15 15 15 15 15 15 15 15 15 15 14 14 15 15 17 18 19 21 22 22 22 22 21 21 21 21 22 21 21 20 19 18 17 16 16 16 16 16 16 17 17 16 17 17 17 16 15 14 13 12 13 15 17 16 16
20 20 20 20 19 19 19 19 19 18 18 18 17 17 17 16 16 16 16 15 15 15 16 16 16 16 15 16 17 18 20 21 22 22 23 22 22 22 22 22 22 22 21 20 20 19 18 17 17 17 16 17 17 17 17 17 17 17 17 17 16 15 14 13 13 15 17 18 17
21 20 20 20 20 20 20 20 20 19 19 19 19 18 18 17 17 17 16 16 16 16 17 17 17 17 16 16 17 18 19 20 21 22 22 22 23 22 22 22 22 22 21 21 20 19 19 18 18 17 17 17 17 17 17 17 17 17 17 17 16 16 15 14 14 16 17 18 18
20 19 19 19 20 20 20 20 20 20 20 20 20 19 19 19 18 18 17 17 17 17 18 18 18 18 17 17 17 18 18 19 20 20 21 22 22 22 22 21 21 21 21 21 20 20 19 19 18 18 17 17 17 17 17 16 16 16 17 17 17 16 15 15 15 16 18 18 18
19 18 19 19 20 20 20 20 20 20 20 20 20 19 19 19 19 18 18 18 18 19 19 19 18 18 18 18 18 18 18 18 19 20 20 21 22 22 22 21 21 21 21 21 20 20 20 19 18 18 17 17 17 17 17 16 16 16 16 17 17 17 16 16 16 17 18 19 18
17 18 18 18 19 19 19 19 19 19 19 19 18 18 18 18 18 18 19 19 19 19 19 19 19 19 19 19 19 19 19 19 19 19 20 20 21 21 22 22 22 22 21 21 20 20 19 19 18 18 17 17 17 16 16 16 15 16 16 16 16 16 16 16 16 17 18 19 18
16 16 17 17 17 17 17 17 18 18 18 17 17 17 17 17 18 18 19 19 20 20 20 20 20 20 20 20 21 21 21 20 20 20 20 20 20 21 21 21 22 21 21 20 19 18 17 17 17 17 17 17 16 16 15 15 15 14 14 14 15 15 15 15 16 17 18 18 18
15 15 16 16 16 16 17 17 17 17 16 16 16 16 16 16 17 17 18 19 19 19 19 19 20 20 20 21 22 22 22 21 21 20 20 20 20 20 20 21 21 21 21 20 19 18 16 16 15 16 16 17 17 17 16 16 14 13 13 12 13 13 14 15 15 16 17 18 18
14 14 14 14 15 16 16 16 16 16 16 15 15 15 15 16 16 17 18 19 19 19 19 19 20 20 21 22 22 23 23 23 22 21 21 20 20 20 20 20 20 20 20 19 18 17 16 15 15 16 16 17 18 19 19 18 16 15 13 12 12 12 12 13 13 14 14 16 17
13 13 13 14 15 15 15 15 15 15 15 14 14 14 15 16 16 17 18 18 18 18 18 19 19 20 21 22 23 23 23 23 22 22 21 21 21 20 20 20 20 20 19 18 17 16 16 15 15 16 16 17 19 20 20 20 19 18 16 15 14 13 13 12 12 12 12 14 15
12 12 13 14 14 14 14 14 14 14 13 13 14 14 15 16 17 17 18 18 18 18 19 19 18 19 20 22 23 23 23 23 23 22 22 22 22 21 21 21 21 20 19 18 17 16 15 15 15 16 16 17 18 20 21 21 21 20 19 18 17 16 15 14 14 13 13 13 15
11 12 13 13 14 14 14 13 13 12 12 13 14 15 16 16 17 17 17 17 18 18 18 18 18 19 21 22 22 22 23 23 23 23 22 22 23 23 22 22 21 21 19 18 17 16 15 15 16 16 16 17 18 19 20 21 21 21 21 21 20 19 18 17 17 16 15 15 15
11 12 12 13 13 13 13 12 11 12 12 13 14 15 16 16 17 17 17 17 17 17 17 17 19 20 21 21 22 22 23 23 23 23 23 23 23 23 23 22 22 22 20 18 17 16 16 16 16 16 17 17 18 19 20 21 21 22 22 22 21 20 19 19 18 18 17 17 16
11 12 12 13 13 13 12 11 11 12 12 14 14 15 16 17 17 16 16 17 17 17 17 18 20 21 21 21 22 22 23 23 23 23 23 23 23 23 23 23 23 23 21 20 18 17 16 16 16 17 17 17 18 19 20 20 21 22 23 23 23 22 21 20 20 19 19 18 18
11 12 12 13 13 12 11 11 11 11 12 14 15 16 16 16 16 16 16 16 17 18 18 19 20 21 21 22 22 23 23 24 24 24 23 23 23 23 24 24 24 23 22 20 19 18 17 16 16 17 17 17 18 19 20 20 21 21 22 23 23 23 22 21 21 21 20 19 19
11 12 12 13 12 12 11 10 11 11 13 14 15 15 15 16 16 16 16 16 16 17 18 19 20 20 21 21 22 23 23 24 24 24 24 24 24 24 25 25 25 24 22 21 20 18 17 16 16 16 17 17 18 19 20 20 21 21 22 22 22 23 23 22 22 22 21 21 20
10 11 12 12 11 11 10 10 10 11 13 14 15 15 15 15 15 15 15 15 16 17 18 19 19 19 20 21 21 22 23 24 24 24 24 24 24 25 26 26 25 24 23 22 20 19 18 17 16 16 16 17 18 19 20 20 21 21 22 22 22 23 23 23 23 22 22 21 21
9 10 10 10 10 10 9 9 10 11 12 13 14 14 14 14 14 14 14 15 16 17 19 19 19 19 20 21 21 22 22 23 23 23 23 23 24 25 26 26 25 24 23 22 20 19 18 17 17 16 16 16 18 19 20 20 21 21 22 22 23 23 23 23 23 23 22 22 21
9 9 9 9 9 8 8 9 10 11 12 12 13 13 13 13 13 13 13 14 16 17 18 19 19 20 20 21 21 21 21 21 22 22 23 23 24 25 26 26 25 24 22 21 21 20 19 18 17 16 16 17 18 19 20 21 21 21 22 23 23 24 24 24 23 23 23 23 22
8 8 8 8 8 8 8 8 9 10 11 11 11 12 12 12 12 13 13 14 16 17 18 18 19 19 19 19 20 20 20 20 21 22 22 23 23 24 24 25 25 23 22 21 20 20 19 18 17 17 17 17 18 19 20 21 21 21 22 22 22 23 24 24 24 24 24 24 23
8 8 8 8 8 8 8 9 9 10 10 11 11 11 11 11 12 12 13 13 15 16 17 18 18 18 18 18 19 20 20 20 20 21 22 23 22 22 23 24 24 23 22 21 20 19 18 17 17 17 17 18 19 20 20 21 21 22 22 22 22 22 23 24 24 25 25 25 24
8 8 8 8 8 8 8 9 9 10 10 10 10 10 10 11 11 12 12 13 14 16 16 17 17 17 17 17 19 20 21 21 21 21 21 21 21 21 22 23 24 23 21 20 19 19 18 17 16 16 17 18 19 20 20 21 22 23 23 22 22 22 22 23 24 25 25 25 25
8 8 8 8 8 8 8 8 9 9 9 9 9 9 9 10 11 12 12 13 14 15 16 17 17 17 17 18 19 20 21 21 21 21 21 21 21 21 21 22 23 23 22 20 19 19 18 17 16 16 17 18 19 20 20 21 22 23 23 24 23 22 21 22 23 24 25 25 25
Wind_Direction
250 251 252 256 259 262 264 267 270 271 268 262 258 257 257 257 260 262 261 260 264 268 271 272 273 274 275 279 283 287 291 294 297 301 304 307 310 312 313 313 313 312 313 313 313 313 312 311 309 303 294 286 281 279 279 279 279 281 283 285 284 282 279 276 270 266 262 259 257
253 255 257 259 262 264 265 266 267 270 272 273 271 268 266 264 264 266 266 264 264 267 270 271 272 273 274 278 281 285 289 292 295 298 301 304 306 308 309 309 308 308 307 307 307 307 306 305 304 298 289 280 272 266 268 274 276 277 280 280 278 277 275 270 266 264 262 259 259
257 258 259 261 262 264 265 265 266 267 270 274 275 276 275 273 271 271 272 271 271 272 272 272 274 275 276 278 281 284 288 291 293 295 298 300 303 304 305 305 304 304 303 303 303 302 302 301 300 295 287 276 267 259 258 264 269 272 273 273 272 271 269 265 263 262 260 259 259
259 259 260 262 264 266 267 269 269 270 270 271 274 276 278 278 277 277 277 278 276 275 275 277 278 279 281 282 283 285 287 289 291 293 295 296 298 300 301 301 300 299 299 299 299 299 298 297 296 292 285 276 267 259 255 257 261 264 265 267 267 266 264 263 261 261 261 258 258
258 259 261 264 266 268 270 271 271 271 270 271 272 273 275 277 277 278 278 277 276 276 278 280 280 281 282 283 283 284 285 287 288 290 291 293 294 295 296 296 296 295 295 296 296 296 295 294 292 289 284 277 269 261 256 256 255 256 258 261 261 261 260 259 260 261 261 258 257
260 260 261 262 264 266 268 268 269 270 270 270 270 271 272 274 275 275 275 275 276 277 278 279 279 279 280 281 281 282 283 284 286 287 288 290 290 291 291 291 292 292 292 292 293 293 292 290 289 286 282 275 269 263 259 256 252 251 252 254 255 255 255 253 254 255 257 256 255
261 260 260 260 262 264 265 266 268 268 269 270 270 271 272 273 274 274 274 275 275 275 275 276 277 278 278 279 280 281 282 283 284 285 286 287 287 287 288 288 288 289 290 290 290 289 288 286 285 283 281 275 268 263 259 256 252 250 249 249 251 251 250 248 249 250 251 253 253
263 262 262 263 263 265 266 267 268 269 270 270 271 272 274 274 274 274 274 274 273 274 274 276 276 277 278 278 279 280 281 281 282 283 284 285 285 285 285 285 286 287 287 288 288 286 284 282 280 280 278 276 271 265 261 257 253 251 249 248 248 248 247 245 246 246 246 247 248
265 266 266 267 268 269 270 271 272 272 272 272 273 274 274 274 273 273 273 274 274 274 274 274 275 275 276 277 278 278 279 280 280 281 282 283 283 284 284 284 284 286 285 284 284 284 282 279 277 276 276 275 272 268 264 260 256 253 251 249 247 246 245 244 243 242 242 243 242
269 270 270 270 271 273 274 274 274 274 274 274 274 274 274 273 273 274 276 277 277 276 275 274 274 274 274 275 275 276 277 277 278 278 279 280 282 283 284 285 284 285 284 281 280 281 280 278 274 272 272 272 270 269 267 264 261 257 254 252 249 246 244 242 241 239 239 239 238
274 274 273 273 273 274 274 273 273 274 274 274 274 274 273 273 275 277 279 280 279 278 277 276 274 273 272 272 273 273 274 274 274 275 276 277 280 282 284 285 285 285 284 279 276 277 279 278 275 270 266 265 266 266 266 266 264 261 257 254 251 246 242 240 238 236 234 234 235
276 275 275 274 274 273 272 272 273 273 273 274 274 274 273 274 276 278 280 281 282 283 282 279 276 273 271 269 269 269 270 270 271 271 272 275 278 281 283 285 285 285 284 281 276 275 278 279 277 272 266 260 259 260 261 263 263 263 261 259 255 249 242 235 233 230 229 229 230
275 275 274 273 272 272 272 272 273 273 273 274 274 275 275 275 276 278 279 281 284 287 287 284 279 275 271 269 267 266 266 266 267 268 270 272 276 279 282 284 285 286 287 285 281 279 279 280 278 275 271 264 258 255 255 257 260 261 262 262 261 256 245 233 227 224 224 224 225
273 273 273 272 272 271 271 272 272 273 274 275 276 277 278 277 277 277 278 280 284 288 289 287 283 279 275 271 267 265 264 264 264 266 267 271 274 277 280 282 284 287 288 288 286 284 282 280 277 275 273 271 267 261 256 255 257 259 260 261 261 260 250 233 223 220 220 222 224
272 272 273 273 272 271 271 272 272 273 275 276 277 279 280 279 278 277 278 279 282 286 288 288 287 284 279 274 269 265 262 261 262 264 266 269 273 276 278 281 284 286 288 290 289 287 284 281 277 273 272 271 270 268 263 260 259 260 260 259 259 258 251 234 221 216 217 221 225
271 272 272 272 272 272 272 273 274 275 276 278 280 281 281 280 279 278 277 278 280 282 284 287 288 286 281 276 271 266 263 261 261 262 265 268 271 273 276 279 281 284 286 289 290 289 285 280 276 272 269 268 268 268 267 265 264 263 262 260 258 257 250 236 222 216 215 219 224
271 271 271 271 272 272 272 274 275 276 278 280 282 283 283 282 280 278 277 277 278 279 281 284 285 285 282 277 272 267 263 261 261 262 263 265 267 269 271 273 276 279 282 286 288 288 285 280 276 272 268 266 264 264 264 265 265 265 265 263 261 260 253 240 225 218 216 218 222
269 270 270 270 271 272 273 274 275 277 279 281 283 284 284 283 281 279 278 277 277 277 279 281 282 282 280 278 273 268 264 262 262 262 263 264 265 267 268 269 271 275 279 283 285 286 285 282 279 274 269 265 261 260 260 261 263 265 265 265 264 263 257 244 228 220 217 218 221
268 268 268 269 269 271 272 274 275 277 279 281 282 283 283 282 281 280 278 277 277 278 279 280 279 279 279 278 274 270 267 265 264 264 265 266 266 267 269 270 272 275 278 280 281 282 281 279 277 274 270 265 261 259 258 259 260 263 264 264 263 262 259 249 233 221 216 218 222
267 267 267 268 269 270 271 273 274 276 277 278 279 279 280 280 280 278 277 277 278 279 279 279 278 278 279 278 276 273 270 267 266 266 266 267 268 269 271 273 275 276 278 278 278 278 276 274 272 270 267 264 261 260 259 259 259 261 262 263 262 261 259 254 239 225 218 218 223
266 266 267 268 269 270 271 272 273 274 275 275 275 276 276 277 277 276 277 278 278 277 277 277 277 278 279 279 278 276 273 270 268 267 267 268 268 270 271 273 274 276 276 276 276 275 274 272 269 267 265 263 261 260 260 259 259 260 261 262 263 263 261 256 244 231 223 222 224
266 267 267 268 268 269 270 271 272 272 273 273 273 273 273 274 274 275 276 276 276 275 275 275 276 278 279 279 279 279 276 273 271 269 268 268 269 270 271 272 273 274 275 275 275 274 273 272 270 268 265 263 262 261 260 259 259 259 260 262 263 264 262 256 246 235 228 225 224
265 266 267 267 267 268 269 270 271 271 271 271 271 271 271 271 272 274 274 274 274 273 274 275 276 277 278 279 279 279 278 275 273 271 270 270 270 271 272 272 272 273 273 273 272 272 272 272 271 268 265 263 262 261 260 258 257 258 260 262 264 264 263 257 248 238 230 225 223
263 264 265 266 267 267 269 269 269 269 269 270 270 271 271 271 272 273 273 273 272 273 274 275 276 277 277 277 278 278 277 274 272 271 271 271 272 272 273 273 274 273 273 271 270 270 270 271 271 269 267 265 263 261 260 258 257 258 259 261 263 264 263 259 251 241 231 224 221
262 263 264 265 266 267 268 268 268 269 269 270 271 271 271 272 272 272 272 271 272 272 273 275 276 276 276 276 277 277 276 274 272 271 270 271 272 273 274 275 275 274 273 271 270 268 267 267 268 269 269 268 266 264 262 260 260 261 262 263 262 262 261 260 254 244 234 225 221
262 263 264 265 267 267 268 268 269 270 271 272 272 272 272 272 273 272 272 272 272 273 274 275 275 275 275 275 275 275 275 274 273 272 271 271 271 272 273 274 275 275 274 272 271 267 263 259 257 260 265 269 270 269 267 266 266 267 267 266 263 261 260 259 257 248 237 227 223
261 263 264 266 267 268 269 269 271 272 272 273 273 273 274 274 274 274 273 274 274 275 275 274 274 273 272 272 271 271 272 273 274 274 274 274 273 273 273 273 274 275 275 274 272 268 262 256 250 248 253 262 267 271 271 272 273 272 271 268 265 262 261 260 259 252 240 229 226
260 262 264 266 267 268 270 272 273 273 274 275 276 276 277 276 276 275 275 275 276 276 275 274 273 272 270 268 267 268 270 272 273 275 276 276 276 275 274 274 275 275 276 275 273 269 263 256 250 245 245 250 258 265 269 271 273 272 270 267 264 262 261 262 263 258 247 236 232
260 262 265 266 267 269 272 273 274 275 276 278 278 278 278 277 276 276 276 276 276 275 274 273 273 271 268 265 266 268 270 271 272 274 275 275 276 276 276 276 277 278 278 275 273 269 263 257 251 246 243 243 249 256 262 265 267 268 267 265 263 261 260 261 262 260 254 247 243
259 262 264 265 267 269 270 272 274 276 278 279 279 278 277 277 276 277 277 277 277 277 276 275 273 270 267 267 267 268 268 270 272 273 273 273 274 275 276 277 279 280 280 276 273 268 263 257 252 248 245 242 243 249 255 258 260 262 262 262 261 260 259 259 258 258 256 253 251
259 260 262 264 265 266 268 270 274 276 278 278 278 278 278 277 277 278 279 279 279 278 277 275 272 270 269 269 268 268 268 269 270 271 271 272 273 275 276 278 280 281 280 277 274 269 264 258 253 249 247 244 242 244 248 252 256 258 259 260 260 259 257 256 256 255 254 253 252
257 258 259 261 262 263 265 269 273 275 276 277 277 276 276 276 278 279 280 279 279 278 276 273 271 271 270 269 267 267 267 268 268 269 270 272 273 275 277 278 279 280 280 278 275 271 266 260 255 251 249 246 244 243 245 248 252 255 258 260 261 259 257 256 255 254 253 252 252
253 254 255 257 259 260 263 267 270 272 273 274 274 274 275 277 280 280 279 279 278 277 276 274 273 271 270 269 268 268 268 268 268 269 270 272 273 274 275 276 277 278 278 278 276 274 269 263 258 254 250 248 245 244 244 245 248 252 255 258 260 260 259 257 255 255 255 255 255
250 252 253 254 256 259 261 264 266 268 269 269 270 272 274 277 278 279 280 280 279 278 277 276 275 274 273 272 270 269 269 269 270 270 271 272 272 272 273 273 275 276 277 277 276 274 271 266 261 256 252 249 246 245 244 244 246 248 251 254 257 258 259 258 257 257 257 257 258
249 250 252 253 255 257 258 260 262 264 265 267 269 271 274 276 278 279 282 282 280 279 278 277 276 275 274 273 271 270 269 269 269 270 271 271 271 271 271 272 275 276 276 276 275 274 271 266 262 257 253 249 246 245 244 244 245 246 248 251 253 256 257 258 259 259 259 258 259
248 249 251 252 253 254 255 257 259 261 264 266 269 272 274 276 279 282 283 282 279 278 277 277 276 274 273 272 271 271 270 270 271 272 272 272 271 271 272 274 276 277 277 276 275 272 269 266 261 256 252 249 246 245 244 244 244 245 247 249 251 254 256 257 258 259 260 259 259
245 246 249 250 251 251 252 255 258 261 263 266 269 272 275 278 281 282 281 279 277 275 276 276 275 274 273 274 274 275 275 275 274 273 272 272 271 271 273 276 277 279 279 277 276 273 269 265 260 255 251 248 246 245 244 244 244 246 247 248 250 252 253 255 257 258 260 260 260
239 241 245 247 249 250 252 254 257 260 264 268 271 274 277 279 281 281 280 278 276 275 275 276 274 275 277 279 279 279 279 278 276 274 273 272 272 272 274 278 279 280 281 280 278 276 272 266 261 254 249 246 245 245 245 244 245 246 247 248 250 251 252 254 255 257 259 260 261
231 235 240 245 248 250 252 255 258 262 267 272 274 276 278 279 281 283 282 280 278 277 276 276 276 279 281 282 280 279 278 278 276 275 273 273 274 275 276 278 280 281 282 282 280 279 275 269 263 254 248 245 245 244 244 245 246 247 248 249 250 251 252 253 254 255 257 258 259
226 231 238 244 247 250 254 257 261 266 270 274 276 278 280 282 284 284 282 280 279 279 279 279 281 283 283 281 279 278 278 278 277 276 276 276 278 278 277 277 279 281 283 283 282 280 277 271 264 256 249 245 244 243 243 244 246 247 248 249 250 251 252 253 253 254 255 257 257
225 231 237 243 248 252 256 261 266 270 274 276 279 282 285 285 285 283 281 280 279 280 281 282 284 284 283 280 278 277 276 277 277 278 279 280 280 279 277 276 278 281 283 284 283 281 277 272 265 256 249 245 244 243 242 243 245 246 247 248 248 249 250 252 253 254 255 255 256
Height
809 809 809 810 810 810 810 810 811 811 811 811 812 812 813 813 813 813 813 813 813 813 813 814 814 814 814 814 814 814 814 814 814 814 814 814 814 814 814 813 813 813 814 814 814 814 814 814 814 814 814 814 814 814 814 814 814 815 815 816 816 816 816 816 816 816 816 816 816
807 807 808 808 808 809 809 809 810 810 810 810 811 811 811 811 811 811 811 812 812 812 812 812 812 813 813 813 813 813 813 813 813 813 813 813 813 813 813 813 813 813 813 813 813 813 813 813 813 813 813 813 813 813 814 814 814 814 815 815 815 816 816 816 816 816 816 816 816
806 806 806 807 807 807 808 808 809 809 809 809 810 810 810 810 810 810 811 811 811 811 811 811 811 812 812 812 812 812 812 812 812 812 812 812 812 812 812 812 812 812 812 812 812 812 812 812 812 812 812 812 813 813 813 813 813 814 814 815 815 815 815 815 815 815 815 815 815
805 805 805 806 806 806 807 807 808 808 808 808 808 808 809 809 809 809 809 810 810 810 810 811 811 811 811 811 811 811 811 811 811 811 811 811 811 811 811 811 811 811 811 811 811 811 811 811 811 811 812 812 812 812 813 813 813 813 814 814 814 814 815 815 815 814 814 815 814
804 804 804 805 805 806 806 806 806 807 807 807 807 807 807 808 808 808 808 809 809 809 809 810 810 810 810 810 810 810 810 810 810 810 810 810 811 811 811 810 810 810 810 810 810 810 810 811 811 811 811 811 811 811 812 812 812 813 813 813 813 814 814 814 814 814 814 814 814
803 803 803 804 804 805 805 805 805 806 806 806 806 806 806 807 807 807 807 808 808 808 809 809 809 809 809 809 809 809 809 809 809 809 809 809 809 810 809 809 809 809 809 809 809 809 809 809 810 810 810 810 810 811 811 811 811 812 812 812 813 813 813 813 813 813 813 813 813
802 802 802 803 803 803 804 804 804 804 805 805 805 805 805 806 806 806 806 807 807 807 808 808 808 808 808 808 808 808 808 808 808 808 808 808 808 808 808 808 808 808 808 808 808 808 808 808 809 809 809 809 809 810 810 810 811 811 811 811 812 812 812 812 812 812 812 812 812
801 801 801 802 802 802 803 803 803 803 803 804 804 804 805 805 805 805 806 806 806 806 806 807 807 807 807 807 807 807 807 807 807 807 807 807 807 807 807 807 807 807 807 807 807 807 807 807 807 807 807 807 808 808 808 809 809 810 810 811 811 811 811 811 811 811 811 811 811
800 800 801 801 801 801 802 802 802 802 802 803 803 803 804 804 804 804 805 805 805 806 806 806 806 806 806 806 806 806 806 806 806 806 806 806 806 806 806 806 806 806 806 806 806 806 806 806 806 806 806 806 806 807 807 807 808 808 809 809 810 810 810 810 810 810 811 811 811
799 799 800 800 800 801 801 801 801 801 801 801 802 802 803 803 803 803 804 804 804 804 804 805 805 805 805 805 805 805 805 806 806 805 805 805 805 805 805 806 806 806 806 805 805 805 805 805 805 805 805 805 805 805 806 806 806 807 807 808 808 808 808 809 809 809 809 809 810
798 798 799 799 799 800 800 800 800 800 800 800 801 801 801 802 802 802 802 803 803 803 803 803 804 804 804 804 804 804 804 804 805 804 804 804 804 804 804 804 805 805 805 805 804 804 804 804 804 804 804 804 804 804 804 804 805 805 806 806 806 806 807 807 807 808 808 808 808
797 797 797 798 798 798 798 798 799 799 799 799 800 800 801 801 801 801 801 801 801 802 802 802 802 802 802 802 803 803 803 803 803 803 804 804 804 804 803 803 803 804 804 804 804 803 803 803 802 802 803 803 803 803 803 803 803 803 803 804 804 805 805 806 806 806 806 807 807
796 796 796 796 797 797 797 797 797 797 798 798 798 799 799 800 800 801 801 801 801 801 801 801 801 801 801 801 801 802 802 802 802 802 803 803 803 803 803 802 802 802 803 803 803 803 802 802 802 801 801 801 802 802 802 802 802 802 802 802 802 803 803 804 804 805 805 805 806
794 795 795 795 796 796 796 796 796 796 796 797 797 798 798 799 799 799 799 799 800 800 800 800 800 800 800 800 800 801 801 801 801 801 802 802 802 802 802 801 801 801 801 801 802 801 801 801 801 801 800 800 800 801 801 801 801 801 801 801 801 801 801 802 802 803 804 804 804
793 793 794 794 794 794 794 795 795 795 795 796 796 797 797 798 798 798 798 798 799 799 799 799 799 799 799 799 799 799 800 800 800 801 801 801 801 801 801 801 801 800 800 801 801 801 801 800 800 800 800 800 799 800 800 800 800 800 799 800 800 800 800 801 801 801 802 802 803
791 792 792 792 793 793 793 793 794 794 794 794 795 796 796 796 797 797 797 797 797 797 798 798 798 798 798 798 798 798 799 799 799 799 799 800 800 800 800 800 800 800 799 799 799 799 799 799 799 799 799 799 799 799 799 799 799 799 798 798 798 798 799 799 800 800 800 801 801
790 791 791 791 791 791 792 792 792 793 793 793 794 794 795 795 796 796 796 796 796 796 796 796 796 796 796 796 797 797 797 797 797 798 798 798 798 799 799 799 799 798 798 798 798 798 798 798 798 798 798 798 798 798 798 798 798 798 798 798 797 797 798 798 798 798 799 799 800
789 789 790 790 790 790 791 791 791 791 792 792 792 793 793 794 794 794 794 794 795 795 795 795 795 795 795 795 795 796 796 796 796 796 796 796 796 797 797 797 797 797 797 797 797 797 797 797 797 797 797 797 797 797 797 797 797 797 797 797 797 797 797 797 797 797 798 798 798
787 787 788 788 788 789 789 790 790 790 791 791 791 791 792 792 792 792 793 793 793 793 793 793 793 794 794 794 794 794 794 794 794 794 794 795 795 795 795 795 795 795 796 796 796 796 796 796 796 796 796 796 796 796 796 796 796 796 796 796 796 796 796 796 796 796 796 797 797
786 786 786 786 787 787 788 788 788 789 789 789 790 790 790 791 791 791 791 791 791 792 791 791 791 792 792 792 792 792 792 792 792 792 793 793 793 793 793 793 793 793 794 794 794 794 794 794 795 795 795 795 795 795 795 795 795 795 795 795 795 795 795 795 795 795 795 795 796
784 784 785 785 786 786 786 786 787 787 787 788 788 788 788 789 789 789 789 790 790 790 790 790 790 790 791 791 791 791 791 791 791 791 791 791 791 791 792 792 792 792 792 792 792 792 792 792 793 793 793 793 794 794 794 794 794 794 794 793 793 794 794 794 794 794 794 794 794
782 783 783 783 784 784 784 785 785 785 786 786 786 786 787 787 787 787 788 788 788 788 788 788 789 789 789 789 789 789 789 789 789 790 790 790 790 790 790 790 790 790 790 790 790 790 791 791 791 791 791 791 792 792 792 792 792 792 792 792 792 792 792 792 792 792 792 793 793
781 781 781 782 782 782 782 783 783 783 784 784 784 785 785 785 786 786 786 786 786 786 787 787 787 787 787 788 788 788 788 788 788 788 788 788 788 788 788 788 789 789 788 788 789 789 789 789 789 789 790 790 790 790 790 791 791 791 791 791 791 791 791 791 791 791 791 791 792
779 779 780 780 780 781 781 781 781 781 782 782 782 783 783 783 784 784 784 785 785 785 785 785 786 786 786 786 786 786 786 786 786 786 786 786 786 786 786 787 787 787 787 787 787 787 787 788 788 788 788 788 788 788 789 789 789 789 790 790 790 790 790 790 790 790 790 790 791
777 778 778 778 778 779 779 779 780 780 780 780 781 781 781 782 782 782 783 783 783 783 784 784 784 784 785 785 784 784 784 784 784 784 784 784 785 785 785 785 785 785 785 785 786 786 786 787 786 786 786 786 787 787 787 787 788 788 788 788 788 788 788 788 788 788 789 789 790
776 776 776 777 777 777 777 777 778 778 779 779 779 780 780 780 781 781 781 781 781 782 782 782 783 783 783 783 783 782 782 782 782 782 782 782 783 783 783 783 783 783 783 783 784 785 785 786 786 786 786 786 786 786 786 786 786 787 787 787 787 787 787 787 787 787 787 788 789
774 775 775 775 776 776 776 776 776 777 777 777 778 778 778 779 779 779 779 779 780 780 781 781 781 781 781 781 781 781 781 781 781 781 781 781 781 781 781 781 781 781 781 782 782 783 784 784 785 785 785 785 784 784 784 785 785 786 786 786 786 786 786 786 786 786 786 787 788
773 773 773 774 774 774 774 775 775 776 776 776 776 777 777 777 777 777 778 778 778 779 779 779 779 780 780 780 779 779 779 779 779 780 780 780 780 779 779 779 779 780 780 780 781 781 782 782 783 784 784 784 784 783 783 783 784 784 785 785 785 785 785 784 785 785 785 786 786
771 771 772 772 772 773 773 773 774 774 775 775 775 776 776 776 776 776 776 776 777 777 777 777 778 778 778 778 777 777 778 778 778 778 778 778 778 778 778 778 778 778 778 779 780 780 780 781 781 782 783 783 783 783 782 782 782 782 783 783 783 783 783 783 784 784 784 785 785
770 770 770 771 771 771 771 772 772 773 773 774 774 774 774 774 774 775 775 775 775 776 776 776 776 776 776 776 776 776 776 776 776 776 776 776 776 776 776 776 776 776 777 778 778 779 779 779 780 780 781 782 782 782 781 781 781 781 781 781 781 782 782 782 782 783 783 783 784
768 769 769 769 769 770 770 771 771 772 772 772 772 773 773 773 773 773 773 774 774 774 775 775 775 774 774 774 775 775 774 774 775 775 775 775 775 775 775 775 775 775 775 776 777 777 777 778 778 779 779 780 781 781 780 780 780 779 779 779 779 780 781 781 781 781 781 782 782
767 767 767 767 768 768 769 769 770 770 771 771 771 771 771 771 771 772 772 772 773 773 773 773 773 773 773 773 773 773 773 773 773 773 773 773 773 773 773 773 773 773 774 774 775 776 776 776 777 777 778 778 779 779 779 779 779 778 778 777 778 778 779 779 779 780 780 780 781
766 766 766 766 766 766 767 768 768 769 769 769 769 770 770 770 770 771 771 771 771 771 771 771 771 771 771 771 771 771 771 771 771 771 771 771 771 771 771 771 771 771 772 773 773 774 774 775 775 776 776 776 777 777 777 777 777 777 777 776 776 776 777 777 777 778 778 779 779
764 764 765 765 765 765 766 766 766 767 767 767 767 768 768 769 769 769 769 770 770 770 770 770 770 770 770 770 770 770 770 770 770 770 770 770 770 770 770 769 769 770 771 771 772 772 772 773 773 774 774 775 775 775 775 776 776 776 776 775 775 775 775 775 776 776 776 777 777
763 763 763 763 764 764 764 765 765 765 766 766 766 766 767 767 767 767 768 768 768 768 768 768 768 768 768 768 768 768 768 768 768 768 768 768 768 768 768 767 767 768 769 770 770 771 771 771 772 772 773 773 773 773 773 774 774 774 774 774 774 774 773 774 774 774 775 775 775
762 762 762 762 762 763 763 763 763 764 764 764 764 765 765 766 766 766 766 767 767 767 767 766 767 767 767 766 766 766 766 766 766 766 766 766 766 766 766 765 765 766 767 768 768 769 769 770 770 771 771 771 771 771 771 772 772 772 772 772 772 772 772 772 772 772 773 773 773
761 761 761 761 761 761 762 762 762 762 762 762 763 763 763 764 764 765 765 766 766 765 765 765 765 765 765 765 765 765 765 765 765 765 765 765 765 765 764 764 763 764 765 766 767 767 767 768 769 769 770 770 770 770 770 770 770 770 770 770 770 770 770 771 771 771 771 771 771
759 760 760 760 760 760 761 761 761 761 761 761 761 762 762 762 763 763 764 764 764 764 763 764 764 763 763 763 763 763 763 763 763 763 763 763 763 763 763 762 762 762 763 764 765 765 766 766 767 767 768 768 768 768 768 768 768 768 768 768 768 768 768 769 769 769 769 769 770
758 758 759 759 759 759 760 760 760 760 760 760 760 760 761 761 761 761 762 762 762 762 762 762 762 762 762 762 762 762 761 761 761 762 761 761 761 761 761 761 760 760 761 762 763 763 764 764 765 765 766 766 766 766 766 766 766 766 766 766 766 766 766 766 767 767 767 767 768
757 757 757 758 758 758 758 758 758 759 759 759 759 759 759 760 760 760 761 761 761 761 761 761 761 761 761 761 761 760 760 760 760 760 760 760 760 760 760 760 759 759 759 760 761 761 762 762 763 763 764 764 764 764 765 765 764 764 764 764 764 764 764 764 765 765 765 765 766
756 756 756 756 756 757 757 757 757 757 758 758 758 758 758 758 758 759 759 759 759 759 759 759 759 759 760 760 760 759 758 758 758 758 758 758 758 758 758 758 757 757 757 758 759 760 760 760 761 761 762 762 762 762 763 763 763 762 762 762 762 762 762 762 762 762 763 763 763